#timestamp,LO_Frequency,Hit,StdDev 
1629475215.9,286046998.5,N
1629475235.7,286046999.6,N
1629475255.6,286046997.0,N
1629475275.4,286046997.7,N
1629475295.2,286046996.5,Y
1629475315.1,286046998.2,P
1629475316.0,286046998.2,P
1629475335.8,286047000.9,P
1629475355.7,286046998.6,N
1629475375.5,286047000.6,N
1629475395.3,286046999.9,N
1629475415.2,286046999.7,N
1629475435.9,286046999.8,N
1629475455.7,286047000.2,N
1629475475.6,286046999.8,N
1629475495.4,286046999.8,N
1629475515.3,286047002.4,N
1629475535.1,286047001.7,N
1629475536.0,286047001.7,N
1629475555.8,286047001.6,N
1629475575.7,286047001.6,N
1629475595.5,286047002.4,N
1629475615.3,286047004.0,N
1629475635.2,286047003.9,N
1629475655.0,286047004.4,N
1629475655.9,286047004.4,N
1629475675.8,286047001.4,N
1629475695.6,286047004.4,N
1629475715.4,286047000.2,N
1629475735.3,286047000.2,N
1629475755.1,286047002.4,N
1629475775.8,286046998.6,N
1629475795.7,286047001.2,N
1629475815.5,286046998.2,N
1629475835.4,286046998.3,N
1629475855.2,286046998.4,N
1629475875.0,286046998.3,N
1629475875.9,286046998.3,N
1629475895.8,286047001.2,N
1629475915.6,286046998.3,N
1629475935.4,286046998.8,N
1629475955.3,286046996.5,N
1629475975.1,286046997.8,N
1629475995.9,286046996.9,N
1629476015.7,286046998.9,N
1629476035.5,286046998.7,N
1629476055.4,286046996.6,N
1629476075.2,286046999.4,N
1629476095.0,286046999.5,N
1629476095.9,286046999.5,N
1629476115.8,286046999.1,N
1629476135.6,286046997.5,N
1629476155.5,286046995.3,N
1629476175.3,286046997.7,N
1629476195.1,286046997.0,N
1629476215.9,286046997.3,N
1629476235.7,286046995.2,N
1629476255.5,286046998.0,N
1629476275.4,286046996.1,N
1629476295.2,286046995.2,N
1629476315.1,286046995.8,N
1629476316.0,286046995.8,N
1629476335.8,286046996.3,N
1629476355.6,286046996.0,N
1629476375.5,286046995.0,Y
1629476395.3,286046996.9,P
1629476415.1,286046999.1,N
1629476435.9,286046998.4,N
1629476455.7,286046998.4,N
1629476475.6,286046999.4,N
1629476495.4,286046999.6,N
1629476515.2,286046999.3,N
1629476535.1,286046996.7,Y
1629476536.0,286046996.7,P
1629476555.8,286046998.8,N
1629476575.7,286046998.7,N
1629476595.5,286046999.5,N
1629476615.3,286046998.8,N
1629476635.2,286046998.9,N
1629476655.9,286046999.0,N
1629476675.7,286046999.6,N
1629476695.6,286046996.9,Y
1629476715.4,286046998.4,P
1629476735.3,286047000.9,P
1629476755.1,286046998.3,N
1629476756.0,286046998.3,N
1629476775.8,286046998.7,N
1629476795.7,286046998.3,N
1629476815.5,286047000.7,N
1629476835.3,286047001.0,N
1629476855.2,286047000.9,N
1629476875.0,286046998.1,N
1629476875.9,286046998.1,N
1629476895.8,286047000.0,N
1629476915.6,286046998.2,N
1629476935.4,286046998.1,N
1629476955.3,286047000.8,N
1629476975.1,286046998.8,N
1629476995.8,286046999.1,N
1629477015.7,286046998.8,N
1629477035.5,286046999.2,N
1629477055.4,286046999.5,N
1629477075.2,286046999.6,N
1629477095.0,286046996.9,Y
1629477095.9,286046996.9,P
1629477115.8,286046998.3,N
1629477135.6,286046996.5,P
1629477155.5,286046996.6,Y
1629477175.3,286047000.9,P
1629477195.1,286047001.2,N
1629477215.9,286047001.2,N
1629477235.7,286046998.5,N
1629477255.6,286046998.1,N
1629477275.4,286046998.2,N
1629477295.2,286046999.0,N
1629477315.1,286046998.2,N
1629477316.0,286046998.2,N
1629477335.8,286046998.6,N
1629477355.6,286046998.5,N
1629477405.5,286046998.8,E
1629477415.4,286047001.0,N
1629477435.3,286046998.8,P
1629477455.1,286047000.3,N
1629477456.0,286047000.3,N
1629477475.8,286047002.1,N
1629477495.7,286047001.7,N
1629477515.5,286047002.2,N
1629477535.3,286046999.9,N
1629477555.2,286046999.7,N
1629477575.0,286047002.6,N
1629477575.9,286047002.6,N
1629477595.8,286046999.8,N
1629477615.6,286046998.1,N
1629477635.4,286047000.9,N
1629477655.3,286047000.8,N
1629477675.1,286047001.1,N
1629477695.9,286047000.3,N
1629477715.7,286047001.0,N
1629477735.5,286047000.8,N
1629477755.4,286047001.1,N
1629477775.2,286047002.8,N
1629477795.0,286047000.0,N
1629477795.9,286047000.0,N
1629477815.8,286047002.8,N
1629477835.6,286047000.5,N
1629477855.5,286047000.9,N
1629477875.3,286046998.8,N
1629477895.1,286047000.8,N
1629477915.9,286047000.8,N
1629477935.7,286047000.1,N
1629477955.6,286047000.4,N
1629477975.4,286046999.9,N
1629477995.2,286047000.8,N
1629478015.1,286046998.7,N
1629478016.0,286046998.7,N
1629478035.8,286046999.6,N
1629478055.6,286046996.9,N
1629478075.5,286046997.9,N
1629478095.3,286046994.9,Y
1629478115.2,286046997.5,P
1629478135.0,286046996.7,N
1629478135.9,286046996.7,N
1629478155.7,286046998.3,N
1629478175.6,286047000.6,N
1629478195.4,286047001.1,N
1629478215.3,286046999.5,N
1629478235.1,286046997.8,N
1629478255.8,286046995.0,Y
1629478275.7,286046997.4,P
1629478295.5,286046994.9,P
1629478315.4,286046995.6,N
1629478335.2,286046993.7,Y
1629478355.0,286046998.9,P
1629478355.9,286046998.9,N
1629478375.8,286046998.8,N
1629478395.6,286046998.6,N
1629478415.4,286046998.6,N
1629478435.3,286046998.1,N
1629478455.1,286046998.5,N
1629478475.9,286046998.7,N
1629478495.7,286046998.7,N
1629478515.5,286046998.2,N
1629478535.4,286046998.9,N
1629478555.2,286047000.0,N
1629478575.0,286047000.9,N
1629478575.9,286047000.9,N
1629478595.8,286047002.8,N
1629478615.6,286047001.9,N
1629478635.5,286047002.4,N
1629478655.3,286047002.6,N
1629478675.1,286047002.0,N
1629478695.9,286047004.4,N
1629478715.7,286047001.6,N
1629478735.5,286047003.7,N
1629478755.4,286047001.9,N
1629478775.2,286047001.7,N
1629478795.1,286047002.3,N
1629478796.0,286047002.3,N
